FW7738 Weather Reports


Display with metric or nautical units.
time (UTC)temp
F
wind
direction
speed
MPH
gust
MPH
rain 1hr
in
rain 24hr
in
rain mn
in
humidity
%
barometer
mb
20260906183057 84 81 0.0 1.0 0.00 0.00 0.00 48 1018.4
20260906182032 85 76 1.0 3.0 0.00 0.00 0.00 50 1018.2
20260906181027 85 82 2.0 6.0 0.00 0.00 0.00 50 1018.2
20260906180023 86 87 2.0 6.0 0.00 0.00 0.00 48 1018.3
20260906175018 86 68 1.0 2.0 0.00 0.00 0.00 47 1018.4
20260906174033 86 86 1.0 3.0 0.00 0.00 0.00 45 1018.4
20260906173029 87 95 2.0 4.0 0.00 0.00 0.00 44 1018.2
20260906172024 88 93 2.0 6.0 0.00 0.00 0.00 42 1018.2
20260906171019 88 122 5.0 9.0 0.00 0.00 0.00 36 1018.0
20260906170035 89 113 7.0 11.0 0.00 0.00 0.00 36 1018.0
20260906165030 89 106 5.0 9.0 0.00 0.00 0.00 36 1017.7
20260906164026 90 114 5.0 10.0 0.00 0.00 0.00 35 1017.9
20260906163021 91 162 4.0 10.0 0.00 0.00 0.00 32 1017.9
20260906162016 91 136 7.0 11.0 0.00 0.00 0.00 32 1017.9
20260906161032 91 145 6.0 10.0 0.00 0.00 0.00 33 1017.9
20260906160027 91 145 8.0 13.0 0.00 0.00 0.00 34 1017.8
20260906155022 92 146 5.0 10.0 0.00 0.00 0.00 34 1018.0
20260906154018 92 160 4.0 8.0 0.00 0.00 0.00 33 1018.0
20260906153033 92 136 8.0 15.0 0.00 0.00 0.00 33 1017.9
20260906152028 92 153 8.0 14.0 0.00 0.00 0.00 33 1017.8
20260906151024 93 166 5.0 11.0 0.00 0.00 0.00 32 1017.9
20260906150019 93 167 4.0 10.0 0.00 0.00 0.00 32 1017.8
20260906145035 93 156 5.0 11.0 0.00 0.00 0.00 32 1017.8
20260906144030 93 171 5.0 11.0 0.00 0.00 0.00 32 1017.7
20260906143025 93 164 6.0 13.0 0.00 0.00 0.00 32 1017.9
20260906142021 92 158 6.0 14.0 0.00 0.00 0.00 33 1017.9
20260906141016 93 182 6.0 14.0 0.00 0.00 0.00 32 1018.0
20260906140031 92 149 8.0 13.0 0.00 0.00 0.00 33 1017.9
20260906135027 94 162 9.0 14.0 0.00 0.00 0.00 32 1018.1
20260906134022 94 118 8.0 18.0 0.00 0.00 0.00 29 1017.9
20260906133017 94 128 9.0 14.0 0.00 0.00 0.00 28 1018.1
20260906132033 93 114 7.0 14.0 0.00 0.00 0.00 28 1018.3
20260906131029 93 159 5.0 10.0 0.00 0.00 0.00 30 1018.3
20260906130024 93 122 7.0 10.0 0.00 0.00 0.00 33 1018.3
20260906125019 93 97 5.0 9.0 0.00 0.00 0.00 30 1018.4
20260906124034 94 91 4.0 9.0 0.00 0.00 0.00 30 1018.5
20260906123030 94 92 3.0 13.0 0.00 0.00 0.00 27 1018.5
20260906122025 94 115 6.0 10.0 0.00 0.00 0.00 27 1018.6
20260906121021 95 95 3.0 9.0 0.00 0.00 0.00 28 1018.7
20260906120016 95 121 5.0 11.0 0.00 0.00 0.00 29 1018.6
20260906115032 96 141 4.0 8.0 0.00 0.00 0.00 27 1018.7
20260906114028 96 113 5.0 11.0 0.00 0.00 0.00 24 1018.7
20260906113023 96 129 3.0 6.0 0.00 0.00 0.00 23 1018.8
20260906112019 97 127 2.0 8.0 0.00 0.00 0.00 25 1018.8
20260906111054 96 107 2.0 7.0 0.00 0.00 0.00 25 1019.0
20260906110030 96 175 2.0 4.0 0.00 0.00 0.00 25 1019.1
20260906105045 96 117 1.0 4.0 0.00 0.00 0.00 25 1019.3
20260906104021 95 135 1.0 3.0 0.00 0.00 0.00 25 1019.4
20260906103036 94 104 1.0 3.0 0.00 0.00 0.00 27 1019.5
20260906102051 93 135 1.0 3.0 0.00 0.00 0.00 27 1019.5
20260906101026 92 61 0.0 2.0 0.00 0.00 0.00 29 1019.6
20260906100021 93 113 2.0 4.0 0.00 0.00 0.00 28 1019.6
20260906095057 93 140 0.0 2.0 0.00 0.00 0.00 28 1019.6
20260906094032 92 150 1.0 2.0 0.00 0.00 0.00 28 1019.8
20260906093027 92 133 0.0 2.0 0.00 0.00 0.00 28 1019.6
20260906092023 92 105 0.0 2.0 0.00 0.00 0.00 28 1019.7
20260906091018 89 39 0.0 1.0 0.00 0.00 0.00 30 1019.7
20260906090034 87 0.0 0.0 0.00 0.00 0.00 31 1019.7
20260906085030 86 301 1.0 3.0 0.00 0.00 0.00 32 1019.6
20260906084025 85 347 1.0 2.0 0.00 0.00 0.00 33 1019.7
20260906083020 85 339 1.0 2.0 0.00 0.00 0.00 33 1019.6
20260906082015 85 300 1.0 4.0 0.00 0.00 0.00 33 1019.5
20260906081030 85 303 1.0 3.0 0.00 0.00 0.00 33 1019.4
20260906080026 84 281 2.0 3.0 0.00 0.00 0.00 33 1019.4
20260906075041 83 287 1.0 3.0 0.00 0.00 0.00 35 1019.3
20260906074036 82 347 1.0 3.0 0.00 0.00 0.00 37 1019.1
20260906073032 81 322 2.0 4.0 0.00 0.00 0.00 38 1019.2
20260906072027 80 8 0.0 2.0 0.00 0.00 0.00 40 1019.2
20260906071022 79 326 0.0 2.0 0.00 0.00 0.00 42 1019.2
20260906070018 79 334 0.0 1.0 0.00 0.00 0.00 43 1019.2
20260906065033 77 5 0.0 1.0 0.00 0.00 0.00 45 1019.2
20260906064049 76 302 1.0 4.0 0.00 0.00 0.00 47 1019.1
20260906063024 76 317 1.0 3.0 0.00 0.00 0.00 48 1019.1
20260906062019 75 331 0.0 2.0 0.00 0.00 0.00 48 1019.1
20260906061114 75 291 2.0 7.0 0.00 0.00 0.00 48 1019.0
20260906060030 75 290 2.0 6.0 0.00 0.00 0.00 48 1018.9
20260906055026 75 270 0.0 1.0 0.00 0.00 0.00 47 1018.8
20260906054041 75 306 1.0 3.0 0.00 0.00 0.00 47 1018.7
20260906053016 75 330 0.0 1.0 0.00 0.00 0.00 46 1018.6
20260906052032 75 330 0.0 2.0 0.00 0.00 0.00 45 1018.5
20260906051027 75 0.0 0.0 0.00 0.00 0.00 48 1018.4
20260906050023 75 0.0 0.0 0.00 0.00 0.00 48 1018.4
20260906045018 76 331 1.0 3.0 0.00 0.00 0.00 48 1018.3
20260906044033 76 313 2.0 6.0 0.00 0.00 0.00 47 1018.5
20260906043028 77 310 2.0 7.0 0.00 0.00 0.00 47 1018.5
20260906042024 76 311 4.0 9.0 0.00 0.00 0.00 50 1018.6
20260906041019 75 304 3.0 6.0 0.00 0.00 0.00 54 1018.7
20260906040055 75 289 1.0 3.0 0.00 0.00 0.00 53 1018.6
20260906035031 75 283 1.0 3.0 0.00 0.00 0.00 55 1018.5
20260906034026 74 0.0 0.0 0.00 0.00 0.00 58 1018.7
20260906033022 75 0.0 0.0 0.00 0.00 0.00 56 1018.6
20260906032017 76 332 0.0 1.0 0.00 0.00 0.00 55 1018.6
20260906031032 76 314 1.0 4.0 0.00 0.00 0.00 54 1018.7
20260906030028 76 296 1.0 4.0 0.00 0.00 0.00 54 1018.8
20260906025043 76 316 0.0 2.0 0.00 0.00 0.00 55 1018.7
20260906024019 76 300 1.0 2.0 0.00 0.00 0.00 54 1018.6
20260906023034 76 311 0.0 1.0 0.00 0.00 0.00 54 1018.7
20260906022029 76 316 1.0 1.0 0.00 0.00 0.00 54 1018.8
20260906021025 76 293 1.0 2.0 0.00 0.00 0.00 56 1018.8
20260906020020 76 0.0 0.0 0.00 0.00 0.00 59 1019.0
20260906015036 76 0.0 0.0 0.00 0.00 0.00 61 1019.0
20260906014031 77 0.0 0.0 0.00 0.00 0.00 62 1019.1
20260906013027 76 0.0 0.0 0.00 0.00 0.00 62 1019.2
20260906012042 77 0.0 0.0 0.00 0.00 0.00 62 1019.3
20260906011018 77 0.0 0.0 0.00 0.00 0.00 62 1019.3
20260906010033 77 0.0 0.0 0.00 0.00 0.00 62 1019.3
20260906005028 77 279 1.0 3.0 0.00 0.00 0.00 62 1019.4
20260906004023 77 282 1.0 4.0 0.00 0.00 0.00 63 1019.2
20260906003019 77 0.0 0.0 0.00 0.00 0.00 68 1019.3
20260906002034 77 0.0 0.0 0.00 0.00 0.00 67 1019.3
20260906001029 78 0.0 0.0 0.00 0.00 0.00 65 1019.3
20260906000024 78 354 1.0 1.0 0.00 0.00 0.00 63 1019.3
20260905235019 78 357 0.0 1.0 0.00 0.00 0.00 63 1019.3
20260905234035 79 334 0.0 1.0 0.00 0.00 0.00 64 1019.4
20260905233030 79 308 0.0 2.0 0.00 0.00 0.00 62 1019.6
20260905232025 79 321 0.0 1.0 0.00 0.00 0.00 63 1019.5
20260905231020 79 300 0.0 1.0 0.00 0.00 0.00 62 1019.6
20260905230015 79 339 0.0 1.0 0.00 0.00 0.00 64 1019.6
20260905225031 79 212 0.0 1.0 0.00 0.00 0.00 65 1019.6
20260905224026 80 313 0.0 2.0 0.00 0.00 0.00 64 1019.7
20260905223042 79 332 0.0 1.0 0.00 0.00 0.00 65 1019.8
20260905222017 79 334 0.0 1.0 0.00 0.00 0.00 65 1019.7
20260905221032 80 325 1.0 3.0 0.00 0.00 0.00 62 1019.7
20260905220028 80 290 1.0 3.0 0.00 0.00 0.00 58 1019.7
20260905215023 80 327 1.0 3.0 0.00 0.00 0.00 59 1019.8
20260905214018 80 324 1.0 3.0 0.00 0.00 0.00 60 1019.9
20260905213034 80 342 1.0 2.0 0.00 0.00 0.00 62 1019.8
20260905212029 80 347 1.0 2.0 0.00 0.00 0.00 63 1019.9
20260905211024 80 356 1.0 2.0 0.00 0.00 0.00 66 1019.9
20260905210019 79 347 1.0 2.0 0.00 0.00 0.00 67 1019.9
20260905205035 79 350 2.0 3.0 0.00 0.00 0.00 70 1020.0
20260905204030 80 355 1.0 2.0 0.00 0.00 0.00 71 1020.0
20260905203025 80 339 1.0 2.0 0.00 0.00 0.00 71 1020.0
20260905202020 80 348 2.0 3.0 0.00 0.00 0.00 70 1020.0
20260905201035 80 353 1.0 2.0 0.00 0.00 0.00 72 1019.9
20260905200031 80 352 1.0 2.0 0.00 0.00 0.00 73 1019.9
20260905195026 80 7 0.0 1.0 0.00 0.00 0.00 71 1019.8
20260905194021 81 7 1.0 1.0 0.00 0.00 0.00 72 1019.8
20260905193016 81 0.0 0.0 0.00 0.00 0.00 72 1019.6
20260905192052 81 40 0.0 1.0 0.00 0.00 0.00 73 1019.6
20260905191027 81 17 1.0 2.0 0.00 0.00 0.00 73 1019.5
20260905190022 81 357 1.0 2.0 0.00 0.00 0.00 73 1019.4
20260905185018 81 69 0.0 1.0 0.00 0.00 0.00 74 1019.3
20260905184033 81 75 0.0 3.0 0.00 0.00 0.00 74 1019.3